Location: *
(45.4590°N, 16.3650°E)
Time: 15:57:49
(UTC+00:00)

CZ-4B R/B - Pass Details

Date: 17 January 2020
Orbit: 392 x 468 km, 97.6° (Epoch: 19 February)

Event Time Altitude Azimuth Distance (km) Brightness Sun altitude
Rises 16:33:36 0° 350° (N) 2,328 4.9 -9.5°
Reaches altitude 10° 16:37:06 10° 307° (NW) 1,448 4.4 -10.0°
Maximum altitude 16:37:40 10° 297° (WNW) 1,423 4.6 -10.1°
Drops below altitude 10° 16:38:13 10° 286° (WNW) 1,443 4.9 -10.2°
Sets 16:41:40 0° 243° (WSW) 2,286 7.1 -10.8°
